TimeGMT,TemperatureF,Dew PointF,Humidity,Sea Level PressureIn,VisibilityMPH,Wind Direction,Wind SpeedMPH,Gust SpeedMPH,PrecipitationIn,Events,Conditions,WindDirDegrees,DateUTC
12:20 AM,50.0,46.4,87,30.27,1.9,East,8.1,-,N/A,,Haze,80,2011-11-14 00:20:00
12:50 AM,50.0,46.4,87,30.27,2.2,East,9.2,-,N/A,,Haze,100,2011-11-14 00:50:00
1:20 AM,50.0,46.4,87,30.27,2.5,East,5.8,-,N/A,,Haze,100,2011-11-14 01:20:00
1:50 AM,50.0,46.4,87,30.27,-9999.0,East,6.9,-,N/A,,Haze,80,2011-11-14 01:50:00
2:20 AM,50.0,46.4,87,30.27,3.1,East,8.1,-,N/A,,Overcast,90,2011-11-14 02:20:00
2:50 AM,49,46,87,30.26,4,East,6.9,,,,Light Haze,80,2011-11-14 02:50:00
2:50 AM,50.0,46.4,87,30.24,3.1,East,8.1,-,N/A,,Haze,90,2011-11-14 02:50:00
3:20 AM,48.2,44.6,87,30.24,3.1,East,5.8,-,N/A,,Haze,100,2011-11-14 03:20:00
3:50 AM,48.2,46.4,93,30.24,2.2,East,8.1,-,N/A,,Haze,100,2011-11-14 03:50:00
4:20 AM,48.2,46.4,93,30.24,2.2,East,8.1,-,N/A,,Haze,80,2011-11-14 04:20:00
4:50 AM,48.2,46.4,93,30.24,-9999.0,East,6.9,-,N/A,,Haze,80,2011-11-14 04:50:00
5:20 AM,46.4,44.6,93,30.24,-9999.0,ENE,5.8,-,N/A,,Haze,70,2011-11-14 05:20:00
5:50 AM,47,45,90,30.26,4,East,5.8,,,,Light Haze,80,2011-11-14 05:50:00
5:50 AM,46.4,44.6,93,30.24,2.5,East,6.9,-,N/A,,Haze,90,2011-11-14 05:50:00
6:20 AM,46.4,44.6,93,30.24,3.1,East,8.1,-,N/A,,Haze,80,2011-11-14 06:20:00
6:50 AM,46.4,44.6,93,30.24,3.7,ESE,9.2,-,N/A,,Mostly Cloudy,110,2011-11-14 06:50:00
7:20 AM,46.4,44.6,93,30.24,-9999.0,ESE,9.2,-,N/A,,Haze,110,2011-11-14 07:20:00
7:50 AM,46.4,44.6,93,30.24,-9999.0,East,6.9,-,N/A,,Haze,100,2011-11-14 07:50:00
8:20 AM,46.4,44.6,93,30.24,2.2,ESE,9.2,-,N/A,,Haze,110,2011-11-14 08:20:00
8:50 AM,47,45,91,30.25,5,ESE,10.4,,,,Light Haze,110,2011-11-14 08:50:00
8:50 AM,46.4,44.6,93,30.24,-9999.0,ESE,8.1,-,N/A,,Haze,110,2011-11-14 08:50:00
9:20 AM,46.4,44.6,93,30.24,1.8,ESE,9.2,-,N/A,,Haze,110,2011-11-14 09:20:00
9:50 AM,46.4,44.6,93,30.24,1.8,East,9.2,-,N/A,,Mostly Cloudy,100,2011-11-14 09:50:00
10:20 AM,46.4,44.6,93,30.24,1.9,East,10.4,-,N/A,,Mostly Cloudy,100,2011-11-14 10:20:00
10:50 AM,46.4,44.6,93,30.24,1.9,ESE,5.8,-,N/A,,Mostly Cloudy,120,2011-11-14 10:50:00
11:20 AM,48.2,46.4,93,30.21,-9999.0,ESE,6.9,-,N/A,,Haze,110,2011-11-14 11:20:00
11:50 AM,48,46,92,30.22,3,East,6.9,,,Rain,Drizzle,100,2011-11-14 11:50:00
11:50 AM,48.2,46.4,93,30.21,-9999.0,East,6.9,-,N/A,,Haze,100,2011-11-14 11:50:00
12:20 PM,48.2,46.4,93,30.21,1.9,East,8.1,-,N/A,,Haze,100,2011-11-14 12:20:00
12:50 PM,48.2,46.4,93,30.18,1.7,East,8.1,-,N/A,,Haze,100,2011-11-14 12:50:00
1:20 PM,48.2,46.4,93,30.18,2.5,East,9.2,-,N/A,,Haze,90,2011-11-14 13:20:00
1:50 PM,48.2,46.4,93,30.18,-9999.0,East,8.1,-,N/A,,Haze,100,2011-11-14 13:50:00
2:20 PM,48.2,46.4,93,30.18,1.8,East,6.9,-,N/A,,Haze,90,2011-11-14 14:20:00
2:50 PM,50,48,89,30.19,3,East,6.9,,,,Light Haze,100,2011-11-14 14:50:00
2:50 PM,50.0,48.2,94,30.18,-9999.0,East,8.1,-,N/A,,Haze,100,2011-11-14 14:50:00
3:20 PM,50.0,48.2,94,30.18,1.6,East,8.1,-,N/A,,Haze,100,2011-11-14 15:20:00
3:50 PM,50.0,48.2,94,30.18,1.6,East,8.1,-,N/A,,Haze,90,2011-11-14 15:50:00
4:20 PM,50.0,48.2,94,30.18,1.7,East,6.9,-,N/A,,Haze,90,2011-11-14 16:20:00
4:50 PM,50.0,48.2,94,30.18,1.3,ENE,8.1,-,N/A,,Mostly Cloudy,70,2011-11-14 16:50:00
5:20 PM,50.0,48.2,94,30.18,1.8,ENE,9.2,-,N/A,,Mostly Cloudy,70,2011-11-14 17:20:00
5:50 PM,50,48,91,30.18,2,ENE,9.2,,,,Mist,60,2011-11-14 17:50:00
5:50 PM,50.0,48.2,94,30.18,1.4,ENE,10.4,-,N/A,,Mostly Cloudy,60,2011-11-14 17:50:00
6:20 PM,50.0,48.2,94,30.18,1.4,ENE,9.2,-,N/A,,Mostly Cloudy,70,2011-11-14 18:20:00
6:50 PM,50.0,48.2,94,30.15,1.8,ENE,9.2,-,N/A,,Mostly Cloudy,70,2011-11-14 18:50:00
7:20 PM,50.0,48.2,94,30.15,1.8,ENE,9.2,-,N/A,,Mostly Cloudy,70,2011-11-14 19:20:00
7:50 PM,50.0,48.2,94,30.15,1.4,East,9.2,-,N/A,,Mostly Cloudy,80,2011-11-14 19:50:00
8:20 PM,50.0,48.2,94,30.15,1.3,East,10.4,-,N/A,,Mostly Cloudy,90,2011-11-14 20:20:00
8:50 PM,50.0,48.2,94,30.15,1.4,East,10.4,-,N/A,,Mostly Cloudy,100,2011-11-14 20:50:00
9:20 PM,50.0,46.4,87,30.15,-9999.0,East,8.1,-,N/A,,Haze,80,2011-11-14 21:20:00
9:50 PM,50.0,46.4,87,30.15,-9999.0,ENE,6.9,-,N/A,,Haze,70,2011-11-14 21:50:00
10:20 PM,50.0,44.6,82,30.15,3.1,East,8.1,-,N/A,,Haze,90,2011-11-14 22:20:00
10:50 PM,48.2,44.6,87,30.15,3.1,East,9.2,-,N/A,,Haze,90,2011-11-14 22:50:00
11:20 PM,46.4,42.8,87,30.15,3.1,East,8.1,-,N/A,,Haze,100,2011-11-14 23:20:00
11:50 PM,46,44,88,30.15,3,East,8.1,,,,Light Haze,90,2011-11-14 23:50:00
11:50 PM,44.6,42.8,93,30.15,2.8,East,8.1,-,N/A,,Haze,100,2011-11-14 23:50:00